UPS1467 KSDF-KSBN

Flight info

Callsign UPS1467
Flight time N/A
Altitude 26000
Route SPILR1 BNGIN DCT ZAVNE DCT
Aircraft A306/H-SDE3FGHIRWY/LB1

Departure

Time 2026-04-29 23:36
Airport Louisville Muhammad Ali International Airport (KSDF)

Arrival

Time N/A
Airport South Bend International Airport (KSBN)
Time Latitude Longitude Altitude Speed Heading
2026-04-29 23:24 38.17125 -85.73757 495 ft 0 kts 21°
2026-04-29 23:28 38.17120 -85.73759 486 ft 2 kts 21°
2026-04-29 23:28 38.17104 -85.73766 486 ft 2 kts 17°
2026-04-29 23:28 38.17088 -85.73772 487 ft 2 kts
2026-04-29 23:28 38.17072 -85.73773 487 ft 2 kts 347°
2026-04-29 23:29 38.17058 -85.73762 487 ft 2 kts 301°
2026-04-29 23:29 38.17054 -85.73754 487 ft 0 kts 294°
2026-04-29 23:29 38.17054 -85.73753 487 ft 0 kts 294°
2026-04-29 23:30 38.17064 -85.73782 490 ft 6 kts 293°
2026-04-29 23:30 38.17080 -85.73831 487 ft 7 kts 292°
2026-04-29 23:31 38.17114 -85.73940 487 ft 14 kts 290°
2026-04-29 23:31 38.17133 -85.74011 489 ft 0 kts 288°
2026-04-29 23:32 38.17136 -85.74022 491 ft 8 kts 285°
2026-04-29 23:32 38.17112 -85.74156 487 ft 18 kts 228°
2026-04-29 23:32 38.16985 -85.74148 488 ft 22 kts 163°
2026-04-29 23:32 38.16839 -85.74098 488 ft 22 kts 164°
2026-04-29 23:33 38.16697 -85.74052 486 ft 21 kts 167°
2026-04-29 23:33 38.16547 -85.74005 485 ft 23 kts 164°
2026-04-29 23:33 38.16396 -85.73950 487 ft 22 kts 165°
2026-04-29 23:33 38.16240 -85.73904 487 ft 26 kts 165°
2026-04-29 23:34 38.16070 -85.73847 484 ft 24 kts 165°
2026-04-29 23:34 38.15907 -85.73794 487 ft 22 kts 169°
2026-04-29 23:34 38.15841 -85.73891 483 ft 20 kts 267°
2026-04-29 23:34 38.15887 -85.73948 483 ft 0 kts 344°
2026-04-29 23:35 38.15914 -85.73957 481 ft 25 kts 345°
2026-04-29 23:36 38.16427 -85.74125 485 ft 124 kts 345°
2026-04-29 23:36 38.17523 -85.74457 822 ft 196 kts 348°
2026-04-29 23:36 38.18970 -85.74870 1529 ft 223 kts 345°
2026-04-29 23:36 38.20475 -85.75446 2272 ft 226 kts 342°
2026-04-29 23:37 38.21935 -85.76109 2952 ft 224 kts 336°
2026-04-29 23:37 38.23345 -85.77071 3589 ft 236 kts 331°
2026-04-29 23:37 38.24763 -85.78167 4116 ft 245 kts 329°
2026-04-29 23:37 38.26225 -85.79320 4874 ft 248 kts 329°
2026-04-29 23:38 38.27705 -85.80478 5623 ft 249 kts 328°
2026-04-29 23:38 38.29214 -85.81600 6397 ft 251 kts 331°
2026-04-29 23:38 38.30762 -85.82594 7141 ft 254 kts 332°
2026-04-29 23:38 38.32377 -85.83560 8014 ft 257 kts 332°
2026-04-29 23:39 38.34025 -85.84517 8903 ft 260 kts 331°
2026-04-29 23:39 38.35671 -85.85460 9867 ft 264 kts 329°
2026-04-29 23:39 38.37398 -85.86447 10703 ft 284 kts 330°
2026-04-29 23:39 38.39282 -85.87533 11503 ft 310 kts 330°
2026-04-29 23:40 38.41310 -85.88711 12300 ft 328 kts 329°
2026-04-29 23:40 38.43400 -85.89962 13114 ft 342 kts 327°
2026-04-29 23:40 38.45601 -85.91323 13927 ft 357 kts 327°
2026-04-29 23:40 38.47855 -85.92714 14685 ft 362 kts 327°
2026-04-29 23:41 38.50148 -85.94103 15446 ft 365 kts 327°
2026-04-29 23:41 38.52469 -85.95485 16302 ft 368 kts 327°
2026-04-29 23:41 38.54785 -85.96848 17198 ft 372 kts 327°
2026-04-29 23:41 38.57159 -85.98235 18141 ft 375 kts 327°
2026-04-29 23:42 38.59525 -85.99613 18971 ft 379 kts 327°
2026-04-29 23:42 38.61947 -86.01020 19813 ft 384 kts 327°
2026-04-29 23:42 38.64397 -86.02442 20683 ft 387 kts 327°
2026-04-29 23:42 38.66865 -86.03873 21577 ft 389 kts 327°
2026-04-29 23:43 38.69352 -86.05313 22375 ft 393 kts 327°
2026-04-29 23:43 38.71835 -86.06753 23130 ft 397 kts 327°
2026-04-29 23:43 38.74362 -86.08221 23843 ft 400 kts 326°
2026-04-29 23:43 38.76895 -86.09733 24486 ft 399 kts 324°
2026-04-29 23:44 38.79498 -86.11112 25151 ft 416 kts 336°
2026-04-29 23:44 38.82444 -86.11445 25721 ft 444 kts 352°
2026-04-29 23:44 38.85585 -86.10652 25980 ft 478 kts
2026-04-29 23:44 38.88764 -86.09123 26010 ft 490 kts 11°
2026-04-29 23:45 38.91990 -86.07680 26003 ft 486 kts
2026-04-29 23:45 38.95191 -86.06530 26000 ft 481 kts
2026-04-29 23:45 38.98448 -86.05563 25998 ft 477 kts
2026-04-29 23:45 39.01702 -86.04720 26005 ft 475 kts
2026-04-29 23:46 39.04952 -86.03948 26006 ft 474 kts 360°
2026-04-29 23:46 39.08169 -86.03220 26004 ft 473 kts 359°
2026-04-29 23:46 39.11418 -86.02571 25990 ft 464 kts 353°
2026-04-29 23:46 39.14601 -86.02682 26019 ft 451 kts 345°
2026-04-29 23:47 39.17672 -86.03168 26011 ft 446 kts 341°
2026-04-29 23:47 39.20745 -86.03806 26019 ft 444 kts 340°
2026-04-29 23:47 39.23797 -86.04456 26006 ft 445 kts 340°
2026-04-29 23:47 39.26866 -86.05063 26008 ft 446 kts 341°
2026-04-29 23:48 39.29948 -86.05604 26013 ft 447 kts 342°
2026-04-29 23:48 39.33013 -86.06080 26009 ft 448 kts 343°
2026-04-29 23:48 39.36133 -86.06513 26007 ft 449 kts 343°
2026-04-29 23:48 39.39259 -86.06912 26009 ft 449 kts 344°
2026-04-29 23:49 39.42378 -86.07288 26008 ft 449 kts 344°
2026-04-29 23:49 39.45467 -86.07649 26018 ft 449 kts 344°
2026-04-29 23:49 39.48592 -86.08009 26019 ft 448 kts 344°
2026-04-29 23:49 39.51673 -86.08363 26022 ft 448 kts 344°
2026-04-29 23:50 39.54780 -86.08720 26024 ft 447 kts 344°
2026-04-29 23:50 39.57888 -86.09080 26018 ft 446 kts 344°
2026-04-29 23:50 39.64042 -86.09795 26019 ft 445 kts 344°
2026-04-29 23:51 39.67137 -86.10156 26035 ft 445 kts 344°
2026-04-29 23:51 39.70231 -86.10518 25820 ft 444 kts 344°
2026-04-29 23:51 39.73280 -86.10876 25512 ft 443 kts 344°
2026-04-29 23:51 39.76358 -86.11242 25197 ft 442 kts 345°
2026-04-29 23:52 39.79427 -86.11612 24882 ft 441 kts 345°
2026-04-29 23:52 39.82484 -86.11984 24585 ft 440 kts 345°
2026-04-29 23:52 39.85516 -86.12303 24281 ft 440 kts 346°
2026-04-29 23:52 39.88582 -86.12555 23979 ft 439 kts 347°
2026-04-29 23:53 39.91630 -86.12808 23684 ft 437 kts 347°
2026-04-29 23:53 39.94624 -86.13076 23360 ft 435 kts 346°
2026-04-29 23:53 39.97648 -86.13364 23009 ft 433 kts 346°
2026-04-29 23:53 40.00654 -86.13662 22671 ft 431 kts 346°
2026-04-29 23:54 40.03643 -86.13967 22327 ft 429 kts 346°
2026-04-29 23:54 40.06572 -86.14271 22075 ft 427 kts 346°
2026-04-29 23:54 40.09549 -86.14583 22030 ft 427 kts 346°
2026-04-29 23:54 40.12502 -86.14893 22026 ft 426 kts 346°
2026-04-29 23:55 40.15462 -86.15202 22028 ft 425 kts 346°
2026-04-29 23:55 40.18417 -86.15512 22026 ft 425 kts 346°
2026-04-29 23:55 40.21330 -86.15819 22024 ft 425 kts 346°
2026-04-29 23:55 40.24292 -86.16131 22028 ft 425 kts 346°
2026-04-29 23:56 40.27247 -86.16443 22021 ft 425 kts 346°
2026-04-29 23:56 40.30166 -86.16752 22025 ft 425 kts 346°
2026-04-29 23:56 40.33126 -86.17065 22024 ft 425 kts 346°
2026-04-29 23:56 40.36072 -86.17378 21958 ft 424 kts 346°
2026-04-29 23:57 40.39018 -86.17690 21804 ft 423 kts 346°
2026-04-29 23:57 40.41934 -86.18001 21659 ft 423 kts 346°
2026-04-29 23:57 40.44872 -86.18316 21504 ft 423 kts 346°
2026-04-29 23:57 40.47816 -86.18632 21337 ft 422 kts 346°
2026-04-29 23:58 40.50707 -86.18943 21138 ft 421 kts 346°
2026-04-29 23:58 40.53635 -86.19258 20941 ft 420 kts 346°
2026-04-29 23:58 40.56544 -86.19571 20720 ft 419 kts 347°
2026-04-29 23:58 40.59454 -86.19885 20522 ft 418 kts 347°
2026-04-29 23:59 40.62321 -86.20195 20329 ft 417 kts 347°
2026-04-29 23:59 40.65215 -86.20509 20035 ft 416 kts 347°
2026-04-29 23:59 40.68108 -86.20824 19631 ft 414 kts 347°
2026-04-29 23:59 40.70976 -86.21138 19163 ft 413 kts 347°
2026-04-30 00:00 40.73800 -86.21450 18698 ft 411 kts 348°
2026-04-30 00:00 40.76649 -86.21766 18221 ft 409 kts 348°
2026-04-30 00:00 40.79488 -86.22080 17717 ft 406 kts 348°
2026-04-30 00:00 40.82273 -86.22390 17186 ft 403 kts 348°
2026-04-30 00:01 40.85069 -86.22701 16668 ft 400 kts 349°
2026-04-30 00:01 40.87835 -86.23008 16147 ft 396 kts 349°
2026-04-30 00:01 40.90570 -86.23307 15620 ft 392 kts 349°
2026-04-30 00:01 40.93289 -86.23602 14983 ft 389 kts 349°
2026-04-30 00:02 40.95968 -86.23894 14364 ft 385 kts 347°
2026-04-30 00:02 40.98480 -86.24434 15818 ft 319 kts 342°
2026-04-30 00:02 41.00564 -86.24678 17630 ft 300 kts 347°
2026-04-30 00:02 41.02660 -86.24744 18138 ft 311 kts 349°
2026-04-30 00:03 41.04899 -86.24810 18247 ft 331 kts 349°
2026-04-30 00:03 41.07298 -86.24946 18038 ft 358 kts 348°
2026-04-30 00:03 41.09891 -86.25150 17550 ft 388 kts 349°
2026-04-30 00:03 41.12660 -86.25396 17141 ft 399 kts 349°
2026-04-30 00:04 41.15329 -86.25628 16458 ft 385 kts 349°
2026-04-30 00:04 41.17999 -86.25875 15578 ft 384 kts 350°
2026-04-30 00:04 41.20629 -86.26128 14698 ft 368 kts 350°
2026-04-30 00:04 41.23189 -86.26401 14002 ft 367 kts 349°
2026-04-30 00:05 41.25716 -86.26404 13169 ft 371 kts
2026-04-30 00:05 41.28169 -86.25351 12289 ft 366 kts 22°
2026-04-30 00:05 41.30223 -86.23466 11439 ft 349 kts 34°
2026-04-30 00:05 41.32054 -86.21457 10606 ft 333 kts 36°
2026-04-30 00:06 41.33782 -86.19538 9791 ft 320 kts 36°
2026-04-30 00:06 41.35467 -86.17666 8896 ft 310 kts 36°
2026-04-30 00:06 41.36574 -86.16432 8301 ft 304 kts 36°
2026-04-30 00:06 41.38143 -86.14672 7639 ft 291 kts 36°
2026-04-30 00:07 41.39662 -86.12955 7033 ft 281 kts 36°
2026-04-30 00:07 41.41140 -86.11274 6434 ft 276 kts 36°
2026-04-30 00:07 41.42592 -86.09618 5809 ft 272 kts 36°
2026-04-30 00:07 41.44029 -86.07982 5314 ft 271 kts 36°
2026-04-30 00:08 41.45455 -86.06362 4897 ft 268 kts 36°
2026-04-30 00:08 41.46854 -86.04774 4486 ft 264 kts 36°
2026-04-30 00:08 41.48251 -86.03192 4105 ft 261 kts 36°
2026-04-30 00:08 41.49632 -86.01631 4008 ft 259 kts 36°
2026-04-30 00:09 41.50988 -86.00095 3999 ft 258 kts 36°
2026-04-30 00:09 41.52388 -85.98586 3990 ft 256 kts 30°
2026-04-30 00:09 41.53957 -85.97527 3953 ft 250 kts 14°
2026-04-30 00:09 41.55653 -85.97018 3746 ft 247 kts
2026-04-30 00:10 41.57308 -85.96651 3257 ft 238 kts
2026-04-30 00:10 41.58903 -85.96314 3024 ft 227 kts
2026-04-30 00:10 41.60493 -85.96081 3213 ft 229 kts
2026-04-30 00:10 41.62077 -85.95867 3399 ft 227 kts
2026-04-30 00:11 41.63675 -85.95698 3740 ft 231 kts
2026-04-30 00:11 41.65258 -85.95453 4040 ft 232 kts
2026-04-30 00:11 41.66800 -85.95198 3862 ft 216 kts
2026-04-30 00:11 41.68271 -85.95028 3603 ft 205 kts
2026-04-30 00:12 41.69689 -85.94930 2909 ft 206 kts 357°
2026-04-30 00:12 41.71001 -85.95369 2310 ft 184 kts 321°
2026-04-30 00:12 41.71573 -85.96793 1915 ft 177 kts 281°
2026-04-30 00:12 41.71562 -85.98408 1800 ft 177 kts 269°
2026-04-30 00:13 41.71393 -86.00103 2357 ft 184 kts 264°
2026-04-30 00:13 41.71169 -86.01768 2469 ft 182 kts 264°
2026-04-30 00:13 41.70922 -86.03524 2715 ft 201 kts 264°
2026-04-30 00:13 41.70671 -86.05411 3224 ft 205 kts 266°
2026-04-30 00:14 41.70475 -86.07198 3298 ft 192 kts 267°
2026-04-30 00:14 41.70298 -86.08974 3332 ft 192 kts 268°
2026-04-30 00:14 41.70133 -86.10745 3301 ft 192 kts 268°
2026-04-30 00:14 41.69990 -86.12505 2953 ft 187 kts 270°
2026-04-30 00:15 41.69880 -86.14223 2662 ft 182 kts 272°
2026-04-30 00:15 41.69887 -86.15892 2566 ft 172 kts 277°
2026-04-30 00:15 41.69949 -86.17418 2252 ft 159 kts 278°
2026-04-30 00:15 41.70059 -86.18799 2247 ft 144 kts 282°
2026-04-30 00:16 41.70188 -86.20145 2285 ft 147 kts 283°
2026-04-30 00:16 41.70297 -86.21517 2198 ft 149 kts 280°
2026-04-30 00:16 41.70379 -86.22910 1984 ft 150 kts 279°
2026-04-30 00:16 41.70420 -86.24314 1729 ft 155 kts 277°
2026-04-30 00:17 41.70467 -86.25745 1556 ft 155 kts 276°
2026-04-30 00:17 41.70483 -86.27150 1440 ft 146 kts 274°
2026-04-30 00:17 41.70476 -86.28508 1154 ft 145 kts 274°
2026-04-30 00:17 41.70480 -86.29817 878 ft 145 kts 271°
2026-04-30 00:18 41.70463 -86.31109 791 ft 125 kts 268°
2026-04-30 00:18 41.70448 -86.31969 791 ft 60 kts 264°